Bentonville, AR

9:00 PM CDT on April 19, 2018 (GMT -0500)
Bentonville Municipal-Thaden

Weather History for KVBT - March, 2012

Change the Weather History Date:

Thursday, March 22, 2012

  Actual Average Record
Temperature  
Mean Temperature 54 °F -  
Max Temperature 59 °F 61 °F 81 °F (1988)
Min Temperature 48 °F 36 °F 10 °F (1955)
Degree Days  
Heating Degree Days 12    
Growing Degree Days 4 (Base 50)    
Moisture  
Dew Point 46 °F    
Average Humidity 82    
Maximum Humidity 93    
Minimum Humidity 63    
Precipitation  
Precipitation 0.26 in - - ()
Sea Level Pressure  
Sea Level Pressure 29.87 in    
Wind  
Wind Speed 9 mph (SE)    
Max Wind Speed 17 mph    
Max Gust Speed 26 mph    
Visibility 10 miles    
Events      
Averages and records for this station are not official NWS values.
T = Trace of Precipitation, MM = Missing Value Source: NWS Daily Summary

Daily Weather History Graph

Daily Weather History Graph

Search for Another Location

Airport or City:

Astronomy

Mar. 22, 2012 Rise Set
Actual Time 7:16 AM CDT 7:30 PM CDT
Civil Twilight 6:51 AM CDT 7:56 PM CDT
Nautical Twilight 6:21 AM CDT 8:26 PM CDT
Astronomical Twilight 5:50 AM CDT 8:57 PM CDT
Moon 6:57 AM CDT (3/22) 7:54 PM CDT (3/22)
Length of Visible Light 13h 05m
Length of Day
12h 14m
New Moon, 0% of the Moon is Illuminated
Mar 22
New Moon
Mar 30
First Quarter
Apr 6
Full
Apr 13
Last Quarter
Apr 21
New

Hourly Weather History & Observations

Time (CDT) Temp. Dew Point Humidity Pressure Visibility Wind Dir Wind Speed Gust Speed Precip Events Conditions
12:15 AM 51.8 °F 48.2 °F 88% 29.87 in 10.0 mi ESE 5.8 mph - N/A   Mostly Cloudy
12:35 AM 51.8 °F 46.4 °F 82% 29.87 in 10.0 mi East 6.9 mph - N/A   Mostly Cloudy
12:55 AM 50.0 °F 46.4 °F 87% 29.87 in 10.0 mi East 6.9 mph - N/A   Mostly Cloudy
1:15 AM 48.2 °F 46.4 °F 93% 29.87 in 10.0 mi East 5.8 mph - N/A   Partly Cloudy
1:35 AM 48.2 °F 46.4 °F 93% 29.87 in 10.0 mi East 5.8 mph - N/A   Clear
1:55 AM 48.2 °F 46.4 °F 93% 29.87 in 10.0 mi East 8.1 mph - N/A   Clear
2:15 AM 48.2 °F 46.4 °F 93% 29.87 in 10.0 mi ESE 6.9 mph - N/A   Clear
2:35 AM 48.2 °F 46.4 °F 93% 29.87 in 10.0 mi ESE 5.8 mph - N/A   Clear
2:55 AM 48.2 °F 44.6 °F 87% 29.86 in 10.0 mi ESE 5.8 mph - N/A   Clear
3:15 AM 48.2 °F 44.6 °F 87% 29.86 in 10.0 mi ESE 3.5 mph - N/A   Clear
3:35 AM 48.2 °F 44.6 °F 87% 29.85 in 10.0 mi East 5.8 mph - N/A   Clear
3:55 AM 48.2 °F 44.6 °F 87% 29.85 in 10.0 mi East 8.1 mph - N/A   Clear
4:15 AM 48.2 °F 44.6 °F 87% 29.85 in 10.0 mi East 6.9 mph - N/A   Clear
4:35 AM 48.2 °F 44.6 °F 87% 29.86 in 10.0 mi ESE 8.1 mph - N/A   Clear
4:55 AM 48.2 °F 44.6 °F 87% 29.86 in 10.0 mi East 6.9 mph - N/A   Clear
5:15 AM 48.2 °F 44.6 °F 87% 29.86 in 10.0 mi East 9.2 mph - N/A   Clear
5:35 AM 48.2 °F 44.6 °F 87% 29.86 in 10.0 mi East 9.2 mph - N/A   Clear
5:55 AM 48.2 °F 44.6 °F 87% 29.87 in 10.0 mi East 9.2 mph - N/A   Clear
6:15 AM 48.2 °F 44.6 °F 87% 29.87 in 10.0 mi East 10.4 mph 16.1 mph N/A   Clear
6:35 AM 48.2 °F 44.6 °F 87% 29.87 in 10.0 mi East 11.5 mph - N/A   Clear
6:55 AM 48.2 °F 44.6 °F 87% 29.89 in 10.0 mi ESE 6.9 mph - N/A   Clear
7:15 AM 48.2 °F 44.6 °F 87% 29.89 in 10.0 mi East 8.1 mph - N/A   Scattered Clouds
7:35 AM 48.2 °F 44.6 °F 87% 29.90 in 10.0 mi East 8.1 mph - N/A   Mostly Cloudy
7:55 AM 48.2 °F 44.6 °F 87% 29.90 in 10.0 mi East 8.1 mph - N/A   Mostly Cloudy
8:15 AM 48.2 °F 46.4 °F 93% 29.90 in 10.0 mi East 10.4 mph - N/A   Mostly Cloudy
8:35 AM 50.0 °F 46.4 °F 87% 29.91 in 10.0 mi East 9.2 mph - N/A   Scattered Clouds
8:55 AM 51.8 °F 46.4 °F 82% 29.91 in 10.0 mi ESE 8.1 mph - N/A   Partly Cloudy
9:15 AM 51.8 °F 46.4 °F 82% 29.91 in 10.0 mi ESE 9.2 mph - N/A   Mostly Cloudy
9:35 AM 51.8 °F 46.4 °F 82% 29.92 in 10.0 mi SE 4.6 mph - N/A   Overcast
9:55 AM 51.8 °F 46.4 °F 82% 29.94 in 10.0 mi ESE 5.8 mph - N/A   Overcast
10:15 AM 51.8 °F 46.4 °F 82% 29.93 in 10.0 mi ESE 11.5 mph - 0.01 in   Overcast
10:35 AM 53.6 °F 48.2 °F 82% 29.91 in 10.0 mi East 11.5 mph 16.1 mph 0.01 in   Overcast
10:55 AM 53.6 °F 48.2 °F 82% 29.91 in 10.0 mi East 11.5 mph - 0.01 in   Overcast
11:15 AM 55.4 °F 48.2 °F 77% 29.89 in 10.0 mi ESE 12.7 mph 20.7 mph N/A   Mostly Cloudy
11:35 AM 55.4 °F 48.2 °F 77% 29.90 in 10.0 mi SE 16.1 mph 20.7 mph N/A   Overcast
11:55 AM 57.2 °F 48.2 °F 72% 29.89 in 10.0 mi SE 10.4 mph - N/A   Overcast
12:15 PM 59.0 °F 48.2 °F 67% 29.89 in 10.0 mi SSE 17.3 mph 21.9 mph N/A   Mostly Cloudy
12:35 PM 57.2 °F 46.4 °F 67% 29.90 in 10.0 mi SSE 16.1 mph 26.5 mph N/A   Overcast
12:55 PM 55.4 °F 46.4 °F 72% 29.88 in 10.0 mi South 6.9 mph 19.6 mph N/A   Overcast
1:15 PM 57.2 °F 44.6 °F 63% 29.88 in 10.0 mi SSE 15.0 mph 20.7 mph N/A   Overcast
1:35 PM 55.4 °F 44.6 °F 67% 29.87 in 10.0 mi SSE 16.1 mph - N/A   Overcast
1:55 PM 55.4 °F 46.4 °F 72% 29.86 in 10.0 mi SSE 16.1 mph 24.2 mph N/A   Overcast
2:15 PM 55.4 °F 46.4 °F 72% 29.86 in 10.0 mi SSE 10.4 mph 16.1 mph N/A   Overcast
2:35 PM 53.6 °F 48.2 °F 82% 29.86 in 8.0 mi South 8.1 mph - 0.04 in   Overcast
2:55 PM 53.6 °F 48.2 °F 82% 29.86 in 6.0 mi South 10.4 mph - 0.09 in   Overcast
3:15 PM 53.6 °F 48.2 °F 82% 29.85 in 8.0 mi South 8.1 mph - 0.08 in   Overcast
3:35 PM 51.8 °F 48.2 °F 88% 29.85 in 9.0 mi South 9.2 mph - 0.15 in   Mostly Cloudy
3:55 PM 53.6 °F 48.2 °F 82% 29.84 in 10.0 mi SSE 11.5 mph 17.3 mph 0.16 in   Overcast
4:15 PM 53.6 °F 48.2 °F 82% 29.84 in 10.0 mi SSE 17.3 mph 21.9 mph N/A   Overcast
4:35 PM 53.6 °F 48.2 °F 82% 29.83 in 10.0 mi SSE 16.1 mph 20.7 mph N/A   Overcast
4:55 PM 53.6 °F 46.4 °F 77% 29.83 in 10.0 mi SE 15.0 mph 21.9 mph N/A   Overcast
5:35 PM 53.6 °F 46.4 °F 77% 29.82 in 10.0 mi SE 15.0 mph 21.9 mph N/A   Overcast
5:55 PM 53.6 °F 46.4 °F 77% 29.82 in 10.0 mi SE 12.7 mph 21.9 mph N/A   Overcast
6:15 PM 53.6 °F 46.4 °F 77% 29.83 in 10.0 mi SSE 15.0 mph 20.7 mph N/A   Overcast
6:35 PM 55.4 °F 46.4 °F 72% 29.83 in 10.0 mi SSE 13.8 mph 20.7 mph N/A   Overcast
6:55 PM 55.4 °F 46.4 °F 72% 29.82 in 10.0 mi SSE 15.0 mph 21.9 mph N/A   Mostly Cloudy
7:15 PM 53.6 °F 46.4 °F 77% 29.82 in 10.0 mi SSE 16.1 mph 20.7 mph N/A   Scattered Clouds
7:35 PM 53.6 °F 46.4 °F 77% 29.80 in 10.0 mi SE 11.5 mph - N/A   Mostly Cloudy
7:55 PM 53.6 °F 46.4 °F 77% 29.80 in 10.0 mi SE 12.7 mph - N/A   Overcast
8:15 PM 53.6 °F 46.4 °F 77% 29.81 in 10.0 mi SSE 11.5 mph - N/A   Overcast
8:35 PM 53.6 °F 46.4 °F 77% 29.83 in 10.0 mi WSW 10.4 mph - N/A   Overcast
8:55 PM 53.6 °F 46.4 °F 77% 29.85 in 10.0 mi SW 11.5 mph 18.4 mph 0.05 in   Mostly Cloudy
9:15 PM 51.8 °F 46.4 °F 82% 29.85 in 10.0 mi WSW 8.1 mph - N/A   Overcast
9:35 PM 51.8 °F 46.4 °F 82% 29.86 in 10.0 mi West 5.8 mph - N/A   Overcast
9:55 PM 50.0 °F 46.4 °F 87% 29.87 in 10.0 mi West 4.6 mph - N/A   Overcast
10:35 PM 50.0 °F 46.4 °F 87% 29.87 in 10.0 mi SW 6.9 mph - N/A   Overcast
10:55 PM 50.0 °F 46.4 °F 87% 29.87 in 10.0 mi WSW 5.8 mph - N/A   Mostly Cloudy
11:15 PM 48.2 °F 44.6 °F 87% 29.87 in 10.0 mi WSW 9.2 mph - N/A   Overcast
11:35 PM 48.2 °F 44.6 °F 87% 29.88 in 10.0 mi WSW 3.5 mph - N/A   Overcast
11:55 PM 48.2 °F 44.6 °F 87% 29.88 in 10.0 mi SSW 5.8 mph - N/A   Overcast